Wind_Speed
13 11 11 12 13 13 14 14 14 13 12 12 12 12 12 12 11 10 10 11 12 13 15 15 16 16 16 14 13 12 11 10 8 6 6 8 9 9 8 8 9 10 12 14 15 15 15 14 13 13 12 12 12 12 11 11 11 11 12 13 13 13
13 12 12 13 14 14 15 15 15 14 13 12 12 12 13 12 12 11 10 11 12 13 14 15 15 15 15 14 13 12 11 10 8 7 6 8 9 9 8 7 8 10 12 14 15 15 14 13 13 12 12 12 12 12 11 11 10 10 11 14 14 14
14 14 14 15 15 16 16 16 15 14 14 13 13 13 13 13 13 12 10 11 12 13 14 15 14 14 13 13 13 13 12 11 9 8 8 7 8 8 7 7 8 9 11 13 14 14 13 13 13 12 12 12 12 12 12 12 12 11 11 13 15 15
15 15 15 16 17 17 17 16 16 15 14 13 13 14 15 14 14 12 11 11 12 13 14 15 14 13 13 13 13 13 12 12 11 10 9 9 8 8 7 6 8 9 10 12 12 13 13 12 12 13 12 13 13 13 13 13 14 13 12 13 15 16
17 17 17 18 18 18 17 16 16 16 15 14 14 15 16 16 14 13 12 12 12 13 13 14 14 13 13 12 12 12 12 11 11 11 10 10 8 7 7 7 8 8 9 10 11 12 13 13 13 13 13 14 14 14 15 15 16 16 14 15 16 16
18 18 19 18 18 18 17 17 16 16 15 15 16 17 17 17 15 14 13 12 12 13 13 13 13 12 12 12 11 11 11 11 11 11 10 10 9 8 9 8 8 8 8 10 11 11 12 13 14 15 15 15 16 16 16 17 17 18 17 17 17 17
19 20 20 19 18 18 17 17 17 17 17 16 17 18 18 17 16 14 13 13 13 13 13 13 12 12 11 11 10 10 10 10 10 10 10 10 10 10 10 9 9 9 9 10 11 11 11 12 14 15 16 17 17 18 18 19 19 19 19 18 18 19
20 21 20 19 18 18 18 18 18 18 18 18 18 19 19 18 16 14 14 13 13 14 13 12 12 11 11 11 11 10 10 9 9 9 9 10 10 10 11 10 11 11 11 11 12 12 12 12 13 13 14 15 17 18 18 19 20 20 20 19 19 20
20 20 19 18 19 19 19 19 20 20 20 19 19 20 19 18 16 15 14 14 14 14 13 12 11 11 11 11 11 10 9 9 9 9 9 9 9 10 11 11 12 13 13 13 14 14 14 14 14 14 15 16 16 17 18 18 20 20 20 20 20 20
18 17 18 18 19 19 19 20 21 22 22 22 22 22 20 18 16 16 15 14 14 15 14 12 11 11 11 11 11 10 10 9 8 8 9 9 8 9 10 10 11 12 13 13 14 15 15 16 16 16 17 18 18 18 19 19 20 20 20 21 21 21
16 16 17 18 18 19 19 20 21 22 23 24 24 23 21 19 17 15 15 14 14 14 14 14 13 12 11 11 10 11 10 9 9 9 9 9 9 9 10 10 11 11 12 13 14 14 15 16 16 17 18 18 19 19 20 20 20 21 21 21 22 23
16 17 18 19 19 19 20 20 21 22 23 23 24 22 20 19 18 16 15 15 14 14 14 14 14 13 12 11 11 11 11 11 10 10 10 10 10 11 11 11 12 12 12 13 14 14 15 15 16 16 17 18 18 19 19 20 20 21 21 21 21 22
18 18 18 18 19 21 21 22 24 23 22 21 20 20 17 16 17 17 16 15 14 14 13 13 13 13 13 13 12 13 13 12 12 13 13 12 12 13 13 13 13 14 14 15 15 15 15 16 16 17 17 18 19 19 20 20 21 21 21 21 21 21
20 18 17 18 20 22 23 25 25 23 22 21 19 19 16 14 14 15 16 15 13 13 13 13 13 13 14 14 14 15 15 14 14 15 15 15 15 15 15 16 16 16 16 17 17 17 18 18 18 19 19 20 20 21 21 21 22 22 23 22 22 22
20 18 18 20 21 22 24 26 26 23 22 22 21 18 16 15 12 11 12 14 13 12 13 13 13 14 14 14 15 15 16 15 15 16 16 17 17 18 18 18 18 18 18 18 18 19 19 20 20 20 21 21 21 21 21 22 22 23 23 23 23 22
21 20 19 21 21 21 23 25 26 24 21 21 21 20 19 17 12 9 9 9 12 12 12 12 12 13 14 13 14 15 15 15 15 16 17 17 18 18 19 19 19 19 20 20 20 20 21 21 22 22 22 22 22 22 22 22 22 23 23 23 23 23
20 20 20 21 21 22 23 24 26 24 22 22 21 21 22 21 15 12 10 8 8 9 10 11 11 13 13 13 14 15 15 15 16 17 18 19 20 20 21 22 22 23 23 23 23 23 23 23 24 24 24 24 24 24 23 24 24 24 24 24 24 24
20 18 19 21 22 23 23 23 24 23 24 25 22 21 22 22 17 12 10 8 6 7 9 9 10 12 13 14 15 16 16 17 18 19 20 22 23 24 25 25 26 26 26 26 25 25 25 25 26 26 26 27 26 26 25 25 26 25 25 25 25 24
21 19 19 21 23 24 23 23 24 23 23 24 23 22 21 18 15 12 10 8 7 7 8 8 9 12 14 15 16 16 17 18 19 20 21 23 24 25 26 26 27 27 27 26 26 27 27 27 27 28 28 29 28 28 27 27 27 27 27 26 26 25
24 21 20 21 22 24 24 23 23 22 23 24 24 24 23 19 16 14 10 7 6 7 7 8 10 12 14 15 16 17 17 18 19 20 22 23 24 25 26 27 27 27 27 27 27 27 28 28 28 28 29 29 29 28 28 28 28 28 28 28 28 27
23 21 21 22 22 24 24 23 22 22 23 24 23 22 22 19 15 12 8 7 6 6 7 9 10 12 14 16 17 17 18 19 20 21 23 23 24 25 26 27 27 28 28 28 28 28 28 28 28 28 29 30 30 30 29 29 30 30 30 30 30 29
20 20 21 23 24 24 24 23 23 23 22 21 20 19 18 17 13 9 7 7 7 8 9 10 11 12 14 16 17 17 18 20 21 22 24 24 25 26 26 27 27 28 29 29 29 29 29 28 28 29 29 30 31 31 31 31 32 31 31 31 32 32
20 21 23 25 26 26 24 23 22 22 20 17 16 17 17 15 12 10 9 9 9 9 10 11 12 13 15 16 17 19 20 21 22 23 24 25 25 25 26 27 28 29 30 30 30 30 30 30 30 30 30 30 30 31 31 32 33 33 32 32 32 33
19 22 24 26 27 27 25 23 22 21 19 16 16 17 17 15 15 13 12 12 11 12 12 13 14 15 16 17 18 20 21 22 23 24 24 24 25 25 26 27 27 28 29 31 32 33 33 33 32 32 32 32 32 31 30 30 31 32 34 34 33 33
18 21 23 23 23 23 22 22 22 21 19 18 17 17 17 17 17 16 14 13 13 13 13 14 15 16 17 17 18 19 20 22 22 23 24 24 25 25 26 27 27 28 29 30 32 34 35 36 36 36 35 35 34 33 31 30 28 29 32 34 34 34
16 18 19 19 17 17 18 19 20 19 18 17 16 16 17 17 16 15 14 13 13 13 14 14 15 16 16 17 18 19 20 21 22 23 24 24 25 26 26 27 28 28 29 31 32 34 36 37 38 38 38 37 36 35 33 32 30 28 28 30 33 34
15 14 15 16 16 15 16 18 18 17 16 14 13 14 15 14 14 14 14 13 13 14 14 14 15 15 16 17 18 19 20 21 22 24 25 26 26 27 28 29 29 30 31 32 34 35 36 37 38 38 38 38 38 37 36 35 34 32 29 29 31 33
16 15 14 14 15 16 17 18 17 17 15 13 13 15 16 14 14 14 13 13 14 14 14 15 15 16 17 18 20 21 23 24 25 26 27 28 28 29 29 30 31 31 32 33 35 35 36 36 37 37 38 38 38 38 38 38 37 36 34 32 31 31
15 16 15 12 13 15 16 16 16 15 14 14 16 16 14 13 13 13 13 13 13 14 15 15 17 18 19 21 23 24 26 27 28 29 29 29 30 30 31 31 32 32 33 34 36 36 36 37 37 37 37 37 37 38 38 38 38 38 37 36 34 33
12 14 16 14 14 15 15 15 15 14 14 15 15 13 11 11 12 12 12 12 14 15 16 17 18 20 22 23 25 26 28 29 30 30 31 31 31 31 31 31 32 33 35 36 37 37 37 36 36 36 36 36 37 37 37 38 38 38 37 37 37 36
10 11 13 14 15 15 15 15 15 14 13 13 12 10 10 10 11 12 12 14 15 16 17 19 20 21 23 25 27 28 30 31 31 31 32 32 32 32 32 32 33 35 36 36 36 36 36 36 36 36 36 37 37 37 37 37 37 37 37 36 36 36
9 8 9 10 12 13 13 13 12 11 11 10 9 9 10 11 13 14 14 15 16 18 19 20 22 23 25 27 28 30 31 31 32 32 32 32 33 33 33 34 35 35 36 36 36 35 36 36 37 37 37 38 38 38 38 38 38 37 37 37 36 36
9 9 8 9 9 10 9 9 9 9 9 9 9 10 12 13 15 15 15 17 18 19 21 22 24 26 27 28 29 30 31 32 32 33 33 34 35 35 35 36 35 35 35 35 35 36 36 37 37 37 38 39 40 39 39 39 39 38 38 38 38 37
9 9 9 9 8 8 8 8 8 8 9 10 11 13 14 15 16 17 18 19 20 22 23 25 26 27 28 28 29 30 31 33 34 35 35 36 36 36 37 36 36 35 35 35 36 37 37 37 37 39 40 40 40 40 40 40 40 40 40 40 39 38
9 9 9 9 8 8 8 8 8 10 11 13 14 15 16 16 17 19 20 21 22 24 25 26 26 27 27 28 30 31 33 34 35 36 36 36 36 37 36 36 36 35 36 36 37 38 37 38 39 40 41 41 41 41 41 41 41 41 41 40 40 40
10 10 9 9 9 8 9 10 11 12 13 15 16 17 18 18 19 19 21 22 23 24 25 26 27 27 29 30 32 33 34 34 35 35 36 36 36 36 36 36 36 36 37 38 38 38 38 39 40 41 42 42 42 42 42 41 41 41 41 41 41 41
10 10 10 9 10 10 11 12 14 15 15 16 17 17 17 18 18 19 20 22 23 24 25 27 28 29 30 31 32 33 34 34 35 35 35 35 36 36 36 36 36 37 38 38 38 38 38 40 42 43 44 44 43 43 42 43 43 43 43 43 43 43
Wind_Direction
267 263 258 257 258 259 261 259 258 258 260 266 270 273 276 281 284 285 292 303 315 322 325 328 330 332 333 335 338 341 341 342 347 348 344 341 342 343 343 343 346 347 346 346 349 351 353 355 359 3 5 5 3 5 7 5 6 357 340 342 347 342
257 253 251 254 256 258 259 258 258 258 260 264 268 272 277 280 280 281 288 299 310 317 322 326 331 333 333 334 336 337 334 334 338 340 340 340 340 340 338 342 346 346 345 346 347 350 352 355 358 1 3 1 360 359 2 359 359 1 342 336 341 341
250 247 248 250 253 255 256 257 258 258 260 263 268 274 276 276 275 278 285 295 305 313 319 325 331 334 334 334 334 335 333 333 335 334 337 341 345 343 336 337 342 344 344 343 344 346 349 353 356 358 358 357 356 352 352 353 349 353 344 333 334 335
244 244 245 248 250 252 254 256 257 258 260 264 269 271 272 272 272 275 281 289 300 310 318 324 331 335 334 334 334 335 336 337 337 337 338 342 349 349 339 332 334 338 339 339 341 342 345 351 353 352 351 350 350 347 345 345 343 346 344 334 333 332
241 242 243 245 248 251 253 255 257 259 261 264 266 268 269 268 269 272 277 284 294 306 315 323 330 335 334 334 334 335 338 338 339 340 339 340 343 344 336 327 327 332 334 336 339 341 342 343 345 344 343 343 343 342 339 338 338 342 345 340 335 331
239 241 242 244 247 249 252 254 257 258 259 261 263 265 265 265 267 270 276 282 290 299 309 319 330 336 334 333 333 335 338 337 341 342 338 338 338 339 337 333 334 337 339 340 340 341 341 338 338 338 338 338 338 338 336 336 337 339 343 342 334 328
237 239 241 243 246 249 252 253 254 255 256 258 261 262 263 264 267 270 274 278 285 293 304 316 326 334 334 332 333 335 335 335 342 341 336 337 337 338 338 336 338 341 342 343 340 338 338 336 335 334 334 334 336 337 335 334 335 336 340 340 333 328
238 240 244 245 249 251 252 252 252 253 254 257 258 259 261 263 266 267 271 276 281 288 297 310 318 326 333 335 335 335 333 332 336 338 338 341 340 339 338 336 336 338 341 341 337 335 334 333 331 328 328 331 333 334 333 333 333 334 337 336 332 329
245 247 252 254 256 256 254 253 252 253 253 256 257 258 260 261 263 264 267 273 277 283 291 299 308 319 327 333 336 335 333 334 334 338 346 347 345 342 337 336 336 338 340 338 335 334 333 331 329 328 329 331 332 331 331 331 330 331 332 331 330 328
255 259 264 264 263 263 261 261 260 259 259 258 257 257 258 258 259 261 265 270 274 280 285 288 296 309 319 325 332 333 335 340 340 344 352 350 346 340 335 336 339 339 337 335 334 334 334 332 332 332 332 333 333 332 331 330 329 328 328 328 327 327
263 267 266 264 264 264 263 265 266 267 268 268 265 260 256 255 254 257 262 265 269 274 277 281 287 297 307 316 323 324 328 337 341 351 357 352 347 342 339 339 341 340 335 334 335 335 334 333 332 333 333 333 332 331 330 330 328 326 327 327 326 326
263 261 260 260 261 259 260 263 264 265 267 269 269 262 252 250 250 251 254 258 263 268 271 275 283 292 300 308 315 315 320 330 336 345 351 349 346 342 342 343 341 339 335 334 335 334 333 331 331 331 331 331 330 329 328 328 327 325 324 324 323 322
263 261 262 265 264 261 260 262 262 261 258 256 261 260 254 249 247 245 247 252 256 261 265 271 280 291 299 302 304 307 314 325 330 332 339 343 343 339 339 341 338 336 333 332 332 331 330 330 329 329 329 329 328 327 327 326 325 324 322 320 319 319
274 272 271 269 265 264 265 266 264 262 258 253 252 255 258 261 254 248 246 248 251 255 260 267 278 290 298 301 300 302 307 318 324 327 333 335 333 333 333 334 332 331 330 328 328 327 328 328 327 327 326 326 325 325 324 324 324 323 321 320 319 319
284 276 270 267 266 267 270 270 266 264 263 260 256 252 253 259 262 257 250 245 244 250 258 267 279 288 296 301 301 302 307 316 322 324 328 328 327 328 328 328 327 327 326 324 324 324 324 323 322 322 321 321 320 320 320 321 321 321 320 319 319 319
289 277 271 269 269 272 273 270 266 265 265 262 262 259 255 252 248 248 254 248 239 245 260 271 282 290 295 300 300 303 308 315 318 319 322 323 324 325 323 323 322 322 321 321 321 320 319 318 318 317 316 315 315 315 315 316 317 317 317 317 318 318
293 280 276 273 272 273 272 268 265 265 264 263 265 267 266 260 248 240 249 253 239 244 263 276 285 293 298 301 301 303 306 309 312 314 317 319 320 320 320 320 320 321 321 321 321 320 319 318 316 315 313 312 312 312 313 313 313 313 314 315 315 316
288 277 275 274 273 272 269 268 268 268 267 267 267 269 271 265 251 237 237 247 253 257 270 283 293 300 303 304 304 305 307 310 313 315 317 319 320 320 320 320 321 321 321 321 320 319 319 317 316 314 313 312 311 312 312 311 310 310 311 311 311 312
281 272 271 273 272 270 272 273 272 273 271 270 268 265 266 261 246 229 228 247 268 273 282 295 302 305 306 305 307 309 311 315 318 319 321 322 322 321 321 320 320 320 320 320 319 318 318 316 316 314 313 312 311 311 310 308 308 307 308 307 306 307
276 272 271 272 270 270 273 274 273 274 272 270 271 265 259 253 241 234 242 264 274 278 289 297 301 304 306 307 309 312 316 319 321 322 322 322 321 320 319 319 319 318 318 318 317 317 316 316 316 313 312 311 310 310 309 308 307 307 306 305 304 304
273 270 272 272 270 269 271 273 274 273 272 272 271 264 253 241 235 240 259 278 278 283 291 295 301 304 306 308 311 314 318 320 321 321 321 320 319 318 318 318 317 317 316 316 316 316 316 316 316 313 313 312 312 313 312 310 308 307 306 304 303 302
267 266 272 274 272 270 270 273 272 269 272 270 263 256 244 231 235 252 270 282 287 292 296 300 304 306 307 308 310 314 316 318 319 319 319 318 318 317 317 317 316 316 317 317 317 317 317 318 316 316 316 316 316 315 314 312 310 309 307 305 303 302
264 266 270 273 273 272 271 271 267 266 267 261 252 251 246 242 254 268 277 289 296 299 302 305 305 305 305 307 310 314 316 318 318 318 318 318 317 317 317 317 318 318 318 318 318 317 318 318 317 317 317 316 315 314 313 311 310 309 306 304 303 301
262 266 269 271 272 272 269 264 262 264 260 251 249 251 252 262 270 273 282 294 300 303 305 306 306 305 307 310 314 316 317 318 317 317 317 317 317 317 318 318 319 319 318 318 317 317 317 317 316 316 316 315 314 313 312 311 309 308 307 306 304 302
266 268 267 268 271 271 266 260 259 259 253 249 250 249 257 272 273 271 281 292 298 302 303 303 303 305 310 314 315 316 316 316 316 316 316 316 317 317 318 319 319 319 318 317 317 316 316 316 316 316 316 315 314 313 312 311 309 307 307 307 305 304
270 270 264 261 266 267 263 261 258 251 247 246 246 251 264 273 271 272 280 288 294 297 298 300 303 307 312 313 313 313 313 314 314 314 315 316 316 316 316 316 317 316 316 316 316 317 317 317 317 316 315 314 313 313 312 311 310 308 307 306 305 304
264 270 266 260 258 259 260 259 253 245 242 238 243 260 274 276 274 277 282 287 292 294 296 300 305 309 310 309 310 311 312 312 312 312 313 313 313 314 314 314 315 315 315 316 317 317 317 317 316 315 315 314 313 312 310 309 309 308 308 306 305 304
255 262 264 259 254 252 252 251 248 244 241 240 254 272 280 279 278 281 285 290 293 296 301 305 307 309 309 310 311 312 312 311 310 310 310 311 312 312 313 313 313 314 315 316 316 316 316 316 315 315 315 315 314 313 311 309 308 307 307 306 306 305
251 254 256 256 251 247 246 244 243 243 246 256 267 274 278 279 281 286 290 294 297 301 306 308 309 311 312 312 312 311 310 309 308 308 309 310 311 311 312 312 312 313 314 315 315 315 315 316 316 316 316 316 315 314 313 312 310 309 307 307 307 307
251 250 249 248 245 243 244 242 242 249 260 267 271 273 277 279 282 287 292 296 301 305 307 309 310 311 311 310 309 308 308 307 308 308 309 310 310 310 311 311 311 312 313 313 314 315 316 316 316 316 316 316 315 315 314 314 312 311 310 308 308 307
244 243 245 245 243 244 246 246 249 256 261 263 267 272 274 277 282 288 294 300 303 305 306 307 308 308 307 307 306 306 307 307 307 308 308 308 309 310 310 310 310 311 312 313 314 315 315 315 315 315 315 315 315 314 314 313 312 311 310 309 308 307
234 232 234 238 239 240 242 246 250 253 256 262 271 277 281 286 292 295 299 301 302 304 305 305 306 305 305 305 305 306 306 306 307 307 307 308 308 309 309 310 311 312 313 313 313 314 314 314 314 315 316 315 315 315 314 313 312 311 310 308 307 305
228 221 219 226 229 230 231 236 244 250 261 274 280 285 288 291 293 295 298 299 300 302 302 302 303 303 304 304 304 305 305 306 306 306 307 308 308 309 310 311 312 313 313 312 312 312 313 314 314 315 316 315 315 315 314 313 312 311 310 308 306 304
221 218 218 225 226 224 227 234 248 260 269 275 276 279 282 285 289 293 295 297 298 299 299 299 300 302 303 304 304 305 305 305 305 306 307 308 309 310 311 312 312 312 312 312 312 312 313 314 314 315 315 315 315 314 313 313 311 310 308 306 304 302
225 225 223 225 227 229 238 248 259 266 270 274 277 280 284 287 290 292 294 295 296 296 297 298 300 302 303 304 304 304 304 304 305 306 307 308 309 310 311 312 312 312 312 312 312 313 314 314 314 314 315 315 314 313 312 311 310 308 307 305 303 301
232 234 233 234 236 242 251 258 264 268 271 276 280 284 288 289 290 292 294 295 295 297 298 300 302 303 303 303 303 303 303 304 305 306 307 308 309 310 311 311 311 312 312 312 313 313 313 314 314 314 314 314 313 312 311 310 309 308 306 304 303 301
238 243 248 251 253 255 258 263 268 273 277 280 283 285 288 291 293 295 296 297 298 300 301 302 303 303 303 302 302 302 303 305 306 307 308 309 310 310 311 311 311 312 312 312 312 313 313 313 314 314 313 313 312 312 312 311 310 308 307 305 304 302
Height
5870 5870 5870 5870 5871 5871 5871 5871 5871 5871 5871 5872 5873 5873 5873 5873 5872 5872 5872 5871 5870 5869 5868 5867 5866 5865 5864 5863 5863 5863 5862 5862 5862 5861 5861 5860 5859 5859 5859 5858 5858 5858 5857 5857 5856 5855 5854 5853 5852 5851 5850 5850 5849 5848 5848 5847 5847 5846 5843 5842 5842 5841
5868 5868 5868 5869 5869 5869 5869 5869 5870 5870 5871 5871 5872 5872 5872 5872 5871 5871 5871 5870 5870 5869 5868 5866 5866 5865 5864 5863 5862 5862 5861 5861 5861 5861 5861 5860 5859 5858 5858 5858 5858 5857 5857 5856 5855 5854 5853 5852 5851 5850 5849 5849 5848 5847 5847 5846 5846 5845 5843 5841 5840 5839
5866 5866 5866 5867 5868 5868 5867 5868 5868 5869 5870 5871 5871 5871 5871 5870 5870 5870 5870 5870 5869 5868 5867 5866 5866 5865 5864 5862 5861 5861 5861 5860 5860 5860 5860 5860 5859 5858 5858 5857 5857 5856 5856 5855 5854 5853 5852 5851 5850 5849 5848 5848 5847 5846 5845 5845 5844 5844 5843 5840 5839 5838
5863 5864 5865 5865 5866 5866 5866 5867 5867 5868 5869 5870 5870 5870 5869 5869 5869 5869 5869 5869 5869 5868 5866 5865 5865 5864 5863 5862 5861 5860 5860 5860 5859 5859 5859 5859 5859 5859 5858 5857 5856 5856 5855 5854 5853 5852 5851 5850 5849 5848 5848 5847 5846 5845 5844 5843 5843 5842 5842 5840 5838 5837
5861 5861 5862 5863 5864 5864 5865 5866 5866 5867 5868 5869 5869 5868 5868 5867 5868 5868 5868 5868 5868 5867 5866 5865 5865 5863 5862 5861 5860 5860 5859 5859 5859 5858 5858 5858 5858 5858 5858 5857 5856 5855 5854 5853 5852 5851 5850 5849 5848 5847 5847 5846 5845 5844 5843 5842 5841 5841 5840 5839 5838 5836
5859 5859 5860 5861 5862 5863 5864 5865 5865 5866 5866 5867 5866 5866 5866 5866 5866 5867 5867 5867 5867 5866 5866 5865 5865 5864 5862 5861 5860 5860 5859 5859 5858 5858 5857 5857 5857 5857 5857 5856 5855 5854 5854 5853 5852 5851 5850 5848 5847 5846 5845 5844 5843 5842 5841 5840 5840 5839 5839 5838 5836 5834
5857 5858 5858 5860 5861 5862 5863 5863 5863 5864 5864 5865 5865 5864 5864 5864 5865 5865 5865 5865 5865 5865 5865 5865 5864 5863 5862 5861 5860 5860 5859 5858 5858 5857 5857 5856 5856 5856 5855 5855 5854 5853 5853 5852 5851 5850 5849 5848 5846 5845 5844 5843 5842 5841 5840 5839 5838 5837 5837 5836 5834 5832
5856 5857 5858 5859 5860 5861 5861 5861 5861 5861 5862 5863 5862 5862 5862 5863 5864 5864 5864 5864 5864 5864 5864 5864 5863 5863 5862 5860 5860 5859 5859 5858 5858 5857 5856 5856 5855 5855 5854 5854 5853 5852 5851 5851 5850 5849 5849 5848 5847 5845 5844 5843 5842 5840 5839 5838 5837 5836 5835 5834 5833 5831
5856 5857 5858 5860 5860 5860 5860 5860 5860 5860 5860 5861 5860 5860 5860 5861 5862 5862 5862 5863 5863 5863 5862 5862 5862 5861 5861 5860 5860 5859 5859 5858 5858 5857 5856 5855 5855 5854 5853 5853 5852 5851 5850 5849 5849 5848 5847 5847 5846 5844 5843 5842 5841 5840 5839 5837 5836 5835 5833 5832 5831 5829
5857 5858 5859 5860 5860 5860 5860 5860 5860 5860 5860 5860 5859 5858 5859 5859 5859 5860 5860 5861 5861 5861 5861 5861 5860 5860 5860 5859 5859 5859 5859 5858 5858 5857 5856 5855 5855 5854 5853 5853 5851 5850 5849 5849 5848 5847 5846 5845 5844 5842 5841 5840 5839 5838 5837 5836 5835 5833 5832 5831 5829 5827
5857 5858 5858 5858 5858 5858 5858 5859 5859 5859 5860 5860 5859 5858 5857 5856 5857 5857 5858 5859 5859 5859 5859 5859 5859 5859 5859 5859 5858 5858 5858 5857 5857 5856 5855 5855 5854 5854 5853 5852 5851 5850 5849 5848 5847 5846 5845 5844 5842 5841 5840 5838 5837 5836 5835 5834 5833 5831 5830 5828 5827 5825
5855 5855 5855 5854 5855 5855 5855 5856 5856 5855 5857 5858 5859 5859 5857 5854 5854 5855 5855 5856 5857 5857 5858 5858 5858 5858 5858 5858 5857 5856 5856 5856 5855 5855 5854 5854 5853 5853 5852 5851 5850 5849 5848 5847 5846 5845 5844 5843 5841 5840 5839 5837 5836 5835 5834 5833 5831 5830 5829 5827 5825 5824
5852 5852 5852 5853 5853 5853 5853 5853 5853 5852 5853 5854 5856 5857 5857 5855 5852 5851 5852 5853 5854 5855 5856 5856 5856 5856 5856 5856 5856 5855 5855 5855 5854 5853 5853 5852 5852 5851 5850 5849 5849 5848 5847 5846 5845 5844 5843 5841 5840 5838 5837 5836 5834 5833 5832 5831 5830 5828 5827 5826 5824 5823
5851 5851 5852 5852 5851 5851 5852 5851 5851 5852 5852 5852 5852 5853 5855 5856 5854 5851 5850 5850 5851 5853 5854 5855 5855 5855 5855 5855 5854 5854 5853 5853 5853 5852 5851 5850 5850 5849 5848 5848 5847 5846 5845 5844 5844 5842 5841 5839 5838 5836 5835 5833 5832 5831 5830 5829 5827 5826 5824 5823 5822 5820
5849 5849 5849 5849 5849 5850 5850 5850 5850 5850 5851 5852 5851 5851 5852 5853 5853 5853 5851 5849 5849 5851 5852 5853 5854 5854 5854 5853 5853 5852 5851 5851 5850 5850 5849 5849 5848 5848 5847 5846 5845 5845 5844 5843 5842 5841 5839 5838 5836 5835 5833 5832 5830 5829 5827 5826 5825 5824 5822 5821 5819 5818
5847 5847 5847 5847 5847 5848 5848 5848 5848 5849 5850 5850 5850 5850 5850 5849 5850 5851 5852 5850 5848 5848 5850 5851 5851 5852 5852 5852 5852 5851 5850 5850 5849 5849 5848 5847 5847 5846 5845 5845 5844 5843 5843 5842 5841 5839 5838 5836 5835 5833 5832 5830 5829 5827 5826 5824 5823 5821 5820 5818 5817 5816
5845 5845 5846 5846 5846 5846 5846 5846 5846 5847 5848 5847 5848 5849 5849 5848 5848 5848 5849 5851 5848 5846 5848 5849 5849 5850 5850 5850 5850 5850 5849 5849 5849 5848 5847 5847 5846 5845 5844 5843 5842 5841 5840 5839 5838 5837 5835 5834 5833 5831 5830 5828 5826 5825 5823 5822 5820 5819 5817 5816 5814 5813
5843 5843 5843 5843 5843 5843 5843 5844 5845 5846 5846 5846 5847 5848 5847 5848 5848 5846 5847 5849 5847 5846 5847 5847 5847 5848 5848 5848 5848 5848 5847 5847 5847 5846 5845 5845 5844 5843 5842 5841 5840 5838 5837 5837 5835 5834 5833 5832 5830 5829 5827 5826 5824 5823 5821 5819 5818 5816 5815 5813 5812 5811
5840 5841 5841 5841 5841 5841 5841 5842 5843 5844 5845 5845 5846 5846 5846 5846 5846 5846 5845 5846 5846 5845 5845 5845 5845 5845 5846 5846 5846 5846 5845 5844 5844 5843 5843 5842 5841 5840 5839 5838 5837 5836 5835 5834 5833 5832 5831 5829 5828 5826 5825 5823 5822 5820 5818 5816 5815 5813 5812 5811 5809 5808
5837 5838 5839 5839 5839 5839 5839 5840 5842 5842 5843 5843 5844 5844 5844 5844 5845 5845 5845 5845 5845 5844 5844 5844 5844 5844 5844 5844 5844 5844 5843 5842 5842 5841 5840 5840 5839 5838 5837 5836 5835 5834 5833 5832 5831 5830 5829 5827 5826 5824 5822 5821 5819 5818 5815 5813 5812 5811 5810 5808 5806 5805
5834 5836 5837 5837 5838 5837 5837 5839 5840 5841 5841 5840 5842 5842 5842 5843 5844 5844 5844 5844 5844 5844 5843 5843 5843 5842 5842 5842 5842 5842 5841 5840 5839 5839 5838 5838 5837 5836 5835 5834 5833 5832 5831 5830 5829 5828 5827 5825 5823 5821 5819 5818 5816 5815 5812 5810 5809 5808 5806 5805 5803 5802
5832 5834 5835 5835 5836 5836 5837 5838 5839 5839 5839 5839 5840 5842 5842 5843 5843 5843 5843 5843 5842 5842 5842 5841 5841 5841 5841 5841 5840 5840 5839 5838 5838 5837 5836 5836 5835 5834 5833 5832 5831 5830 5829 5828 5827 5825 5824 5823 5821 5819 5817 5815 5813 5812 5810 5807 5805 5804 5803 5801 5800 5798
5830 5831 5833 5833 5834 5835 5836 5837 5837 5838 5839 5840 5841 5842 5842 5842 5842 5842 5841 5841 5841 5840 5840 5840 5840 5840 5839 5839 5838 5838 5837 5836 5836 5835 5834 5834 5833 5832 5831 5830 5828 5827 5826 5825 5824 5822 5822 5821 5819 5817 5816 5814 5811 5809 5807 5805 5802 5800 5799 5798 5796 5795
5828 5829 5830 5831 5832 5833 5834 5835 5836 5837 5838 5839 5840 5840 5841 5841 5840 5840 5839 5839 5839 5839 5838 5838 5838 5838 5838 5837 5836 5835 5835 5834 5833 5833 5832 5832 5831 5830 5829 5827 5826 5825 5823 5822 5820 5819 5819 5818 5816 5815 5813 5811 5810 5808 5805 5803 5799 5797 5795 5793 5792 5791
5827 5828 5828 5829 5829 5830 5831 5833 5835 5836 5837 5837 5838 5838 5839 5839 5839 5838 5838 5838 5838 5837 5837 5837 5837 5836 5835 5835 5834 5833 5833 5832 5831 5831 5830 5830 5829 5828 5827 5825 5824 5823 5821 5819 5817 5816 5815 5813 5812 5811 5809 5808 5806 5805 5803 5801 5798 5795 5792 5790 5788 5787
5825 5826 5827 5827 5827 5828 5829 5832 5834 5835 5835 5835 5836 5837 5837 5838 5837 5837 5837 5837 5836 5836 5836 5835 5835 5834 5833 5833 5832 5832 5831 5831 5830 5829 5829 5828 5827 5826 5825 5823 5822 5821 5819 5817 5815 5813 5811 5809 5808 5806 5805 5804 5802 5801 5800 5799 5797 5794 5791 5788 5785 5783
5824 5825 5825 5826 5826 5826 5828 5830 5832 5833 5833 5834 5834 5835 5836 5836 5836 5835 5835 5835 5834 5834 5834 5833 5833 5832 5831 5831 5831 5830 5830 5829 5828 5828 5827 5826 5825 5824 5822 5821 5820 5818 5816 5814 5812 5810 5808 5805 5804 5802 5800 5798 5797 5796 5795 5793 5792 5791 5789 5786 5783 5780
5823 5823 5823 5824 5825 5825 5827 5828 5830 5831 5831 5831 5832 5833 5833 5834 5834 5833 5833 5832 5832 5832 5832 5831 5830 5830 5829 5829 5828 5828 5827 5827 5826 5825 5825 5824 5822 5821 5820 5818 5817 5815 5813 5811 5809 5807 5805 5803 5800 5798 5796 5794 5792 5790 5789 5788 5786 5785 5785 5783 5780 5778
5820 5821 5821 5822 5824 5825 5826 5827 5828 5829 5829 5830 5830 5831 5831 5831 5831 5831 5830 5830 5830 5830 5829 5828 5828 5827 5827 5826 5826 5825 5825 5824 5823 5823 5822 5821 5820 5819 5817 5816 5814 5812 5810 5808 5806 5804 5802 5800 5797 5795 5793 5791 5788 5786 5784 5782 5781 5779 5778 5777 5776 5774
5818 5818 5819 5821 5823 5824 5825 5825 5826 5827 5828 5828 5829 5829 5829 5829 5829 5829 5829 5828 5828 5827 5827 5826 5825 5825 5824 5824 5824 5823 5823 5822 5821 5820 5819 5818 5817 5816 5815 5813 5811 5809 5807 5805 5803 5801 5799 5796 5794 5792 5790 5787 5785 5783 5781 5779 5777 5775 5773 5772 5770 5769
5816 5817 5818 5820 5821 5823 5823 5824 5825 5825 5826 5827 5827 5827 5827 5827 5827 5827 5827 5826 5826 5825 5825 5824 5824 5823 5823 5822 5822 5821 5820 5819 5818 5817 5816 5815 5814 5813 5811 5810 5808 5806 5804 5802 5799 5797 5795 5793 5791 5789 5786 5784 5782 5779 5777 5775 5773 5771 5770 5768 5766 5764
5815 5816 5818 5819 5820 5821 5822 5823 5823 5824 5825 5825 5825 5825 5825 5825 5824 5824 5824 5824 5823 5823 5823 5822 5822 5821 5821 5820 5819 5818 5818 5817 5816 5814 5813 5812 5811 5809 5808 5806 5804 5802 5800 5798 5796 5794 5792 5790 5787 5785 5783 5780 5778 5776 5773 5771 5769 5767 5765 5764 5762 5760
5814 5815 5817 5818 5819 5820 5821 5821 5822 5822 5822 5822 5822 5823 5823 5823 5822 5822 5822 5822 5821 5821 5821 5820 5820 5819 5819 5818 5817 5816 5815 5814 5813 5811 5810 5809 5807 5805 5804 5802 5800 5798 5796 5795 5793 5791 5788 5786 5784 5781 5779 5776 5774 5772 5769 5767 5765 5763 5761 5759 5757 5756
5813 5814 5816 5817 5818 5819 5819 5820 5820 5821 5820 5821 5821 5821 5821 5821 5821 5821 5820 5820 5820 5819 5819 5818 5818 5817 5816 5815 5814 5813 5812 5811 5809 5808 5806 5805 5803 5801 5800 5798 5796 5795 5793 5791 5789 5787 5785 5782 5780 5778 5775 5773 5770 5768 5765 5763 5760 5758 5756 5754 5752 5751
5812 5813 5815 5816 5816 5817 5818 5818 5819 5819 5819 5819 5819 5819 5819 5819 5819 5819 5818 5818 5818 5817 5817 5816 5815 5814 5813 5813 5812 5810 5809 5807 5806 5804 5803 5801 5799 5798 5796 5794 5793 5791 5789 5787 5785 5783 5780 5778 5776 5774 5771 5769 5766 5763 5761 5758 5756 5754 5751 5749 5747 5745
5810 5812 5813 5814 5815 5815 5816 5817 5817 5818 5818 5817 5817 5817 5817 5817 5817 5817 5816 5816 5815 5815 5814 5813 5812 5811 5810 5810 5808 5807 5806 5804 5802 5801 5799 5797 5796 5794 5792 5791 5789 5787 5785 5783 5781 5779 5776 5774 5772 5770 5767 5764 5762 5759 5756 5754 5751 5749 5746 5744 5742 5740
5809 5809 5811 5812 5813 5814 5814 5815 5815 5815 5815 5815 5815 5815 5815 5815 5814 5814 5814 5813 5813 5812 5811 5810 5809 5808 5807 5806 5805 5804 5802 5800 5799 5797 5795 5794 5792 5790 5789 5787 5785 5783 5781 5779 5777 5775 5772 5770 5768 5765 5763 5760 5757 5754 5751 5749 5746 5743 5741 5738 5736 5733